Temp
12 11 11 10 11 10 9 8 8 7 6 5 5 4 4 3 3 3 2 2 1 1 1 0 0 0 -0 -0 -0 -1 -1 -1 -1 -0 -0 -1 -1 -0 -0 -0 0 0 0
11 11 11 10 11 10 9 8 8 7 6 5 5 4 3 3 3 2 2 1 1 1 1 -0 -1 -0 -1 -1 -1 -1 -1 -1 -1 -1 -1 -1 -1 -1 -0 0 0 0 0
11 11 10 10 10 9 8 8 8 7 5 5 4 4 3 3 2 2 2 1 1 0 0 -0 -0 -1 -1 -0 -0 -0 -0 -1 -1 -2 -2 -1 -1 -0 -0 -0 -0 -0 -1
11 10 10 10 10 9 8 8 7 6 5 4 4 3 3 2 2 2 1 1 0 -0 -0 -1 -1 -1 -1 -1 -1 -2 -2 -1 -1 -1 -1 -1 -1 -1 -1 -1 -1 -2 -2
10 10 10 9 9 8 8 7 6 5 5 4 3 3 2 2 1 1 1 0 -0 -1 -1 -1 -1 -2 -2 -2 -2 -2 -2 -2 -2 -2 -2 -2 -1 -1 -1 -2 -2 -3 -3
9 9 9 8 8 7 7 6 5 5 4 3 2 2 1 1 0 1 1 -0 -1 -1 -1 -1 -1 -2 -2 -2 -2 -2 -2 -2 -2 -2 -2 -2 -2 -2 -2 -3 -3 -3 -3
8 8 7 7 6 6 5 5 4 3 2 1 0 1 1 1 -0 -1 -1 -1 -1 -1 -1 -1 -1 -1 -2 -2 -2 -2 -2 -2 -1 -1 -2 -2 -2 -3 -3 -3 -4 -4 -4
6 6 5 5 5 4 4 3 2 1 0 -1 -1 0 2 1 -1 -1 -2 -1 -2 -1 -2 -2 -2 -2 -2 -2 -2 -2 -2 -2 -2 -2 -2 -3 -3 -3 -3 -4 -4 -4 -4
4 4 4 3 3 3 2 2 0 -1 -1 -2 -1 -0 0 -1 -2 -2 -2 -2 -2 -2 -2 -2 -2 -2 -2 -3 -3 -3 -3 -3 -3 -3 -3 -3 -3 -4 -4 -4 -4 -4 -5
2 2 2 2 2 1 1 -0 -1 -2 -2 -2 -2 -1 -1 -2 -3 -2 -2 -2 -2 -2 -2 -2 -2 -3 -3 -3 -3 -3 -3 -3 -4 -4 -4 -4 -5 -5 -4 -5 -5 -5 -5
2 1 1 1 1 1 -1 -2 -2 -3 -3 -3 -3 -3 -2 -2 -3 -3 -2 -2 -2 -2 -2 -2 -2 -3 -4 -4 -4 -4 -4 -4 -4 -5 -5 -5 -5 -5 -5 -5 -5 -6 -6
0 0 -0 -0 -0 -1 -2 -3 -3 -3 -4 -4 -4 -4 -4 -4 -3 -3 -3 -2 -3 -3 -3 -3 -3 -4 -4 -4 -4 -4 -4 -4 -5 -5 -5 -5 -5 -6 -6 -6 -6 -5 -5
-1 -1 -1 -2 -2 -3 -3 -4 -4 -4 -4 -5 -4 -5 -5 -4 -4 -4 -3 -3 -4 -3 -3 -4 -4 -5 -5 -5 -5 -5 -5 -5 -6 -6 -6 -6 -6 -6 -6 -5 -5 -5 -5
-2 -3 -3 -4 -4 -4 -4 -4 -4 -4 -5 -5 -5 -5 -5 -5 -4 -4 -4 -4 -4 -4 -4 -5 -5 -5 -5 -5 -6 -6 -6 -6 -6 -6 -6 -7 -7 -6 -6 -6 -6 -6 -5
-4 -4 -4 -4 -5 -5 -5 -5 -5 -5 -5 -4 -5 -5 -4 -4 -4 -4 -4 -4 -4 -5 -5 -5 -6 -6 -6 -6 -6 -6 -7 -7 -7 -7 -7 -7 -7 -6 -6 -6 -6 -5 -5
-5 -5 -5 -5 -5 -5 -5 -4 -4 -4 -4 -4 -5 -4 -4 -4 -4 -4 -5 -5 -6 -5 -6 -6 -6 -6 -6 -7 -7 -7 -8 -7 -7 -8 -7 -7 -7 -7 -7 -6 -6 -5 -5
-5 -5 -5 -5 -5 -5 -4 -4 -4 -4 -5 -4 -4 -4 -4 -4 -5 -5 -6 -6 -6 -6 -6 -7 -7 -7 -7 -8 -8 -8 -8 -8 -8 -8 -7 -7 -7 -7 -6 -6 -5 -5 -5
-5 -5 -5 -5 -5 -5 -4 -5 -5 -4 -4 -4 -4 -4 -5 -6 -6 -6 -6 -6 -7 -7 -8 -8 -8 -8 -8 -8 -8 -8 -9 -9 -8 -7 -7 -7 -7 -7 -6 -5 -5 -5 -4
-5 -5 -5 -5 -5 -4 -4 -4 -5 -5 -5 -5 -5 -5 -6 -7 -7 -7 -7 -7 -8 -8 -8 -8 -9 -9 -9 -9 -9 -9 -9 -9 -8 -8 -8 -7 -7 -6 -6 -5 -5 -4 -4
-5 -5 -5 -5 -6 -6 -6 -6 -6 -6 -7 -7 -7 -7 -8 -7 -8 -8 -8 -9 -9 -9 -9 -9 -9 -10 -9 -10 -10 -10 -10 -10 -9 -9 -8 -7 -7 -6 -5 -5 -5 -5 -5
-6 -6 -6 -6 -6 -6 -6 -7 -7 -7 -7 -8 -8 -8 -8 -8 -9 -9 -9 -9 -9 -9 -10 -10 -10 -10 -10 -10 -10 -10 -10 -10 -10 -9 -8 -7 -6 -6 -5 -5 -5 -5 -5
-7 -7 -7 -7 -7 -7 -7 -7 -7 -7 -8 -8 -9 -9 -9 -9 -9 -10 -10 -10 -10 -10 -10 -10 -10 -10 -9 -10 -10 -11 -11 -10 -10 -9 -8 -7 -6 -6 -6 -6 -6 -5 -5
-8 -8 -8 -8 -7 -8 -8 -8 -8 -9 -9 -10 -10 -10 -10 -10 -10 -10 -10 -10 -10 -10 -9 -9 -9 -9 -9 -9 -9 -9 -11 -10 -10 -9 -7 -6 -6 -6 -6 -6 -6 -6 -5
-8 -8 -8 -8 -9 -9 -9 -9 -9 -10 -10 -10 -11 -11 -10 -10 -10 -10 -10 -10 -10 -10 -10 -10 -9 -9 -9 -9 -9 -8 -8 -9 -8 -7 -6 -6 -6 -6 -7 -7 -6 -6 -5
-8 -8 -8 -9 -9 -9 -10 -10 -10 -11 -11 -11 -11 -11 -11 -11 -11 -10 -10 -10 -10 -10 -10 -9 -9 -9 -9 -9 -8 -8 -9 -8 -7 -7 -6 -6 -7 -7 -7 -7 -6 -5 -4
-9 -9 -9 -10 -10 -10 -11 -11 -11 -11 -11 -11 -11 -11 -11 -11 -11 -11 -11 -10 -10 -10 -10 -9 -9 -9 -9 -9 -8 -9 -9 -8 -7 -6 -6 -7 -7 -7 -7 -6 -6 -5 -4
Height
681 689 695 703 710 718 726 734 739 747 755 763 771 779 784 790 797 803 811 815 819 823 825 826 826 827 827 828 827 826 824 824 819 811 810 805 798 792 787 783 778 772 766
672 682 690 698 706 712 720 727 734 739 747 755 765 773 778 785 791 799 806 811 815 818 821 823 823 824 824 824 823 822 821 820 817 808 804 799 794 788 782 776 771 766 761
670 679 686 693 699 705 715 723 728 734 741 750 758 765 771 779 787 794 800 806 811 815 817 819 820 821 821 820 820 818 817 815 813 808 797 794 789 783 775 769 763 757 754
667 674 680 687 693 702 710 720 726 732 737 745 752 759 766 773 782 789 796 802 807 811 813 815 817 817 817 817 816 814 812 811 808 804 796 789 784 778 773 763 754 753 746
665 671 676 686 691 699 708 716 724 729 733 740 749 756 762 769 777 784 792 798 803 807 810 812 813 813 813 813 812 811 810 807 804 799 793 786 779 772 767 761 752 742 738
663 669 677 682 688 696 705 714 721 726 731 738 746 751 758 766 774 782 789 795 800 804 807 809 809 809 809 809 808 808 807 803 798 794 789 782 777 771 764 759 749 738 720
664 669 674 680 686 694 704 711 716 722 728 735 740 747 754 764 773 780 786 792 798 802 804 805 805 806 806 806 805 803 800 798 794 790 784 780 773 768 761 751 746 737 727
666 670 674 680 686 694 701 708 714 720 725 731 737 743 752 762 771 778 785 792 796 799 800 801 801 803 803 802 801 798 794 791 788 786 781 776 770 764 759 751 741 728 718
667 671 676 681 687 692 698 705 711 717 725 730 735 742 752 762 770 777 785 791 795 797 798 799 799 800 799 799 797 793 789 786 784 781 777 771 766 759 753 744 735 728 709
667 671 677 682 688 693 697 701 709 716 722 727 735 745 754 761 769 777 785 789 793 795 796 796 796 796 796 795 792 788 785 782 779 773 769 764 759 753 747 742 733 723 714
667 672 677 682 688 693 698 703 707 713 721 728 737 748 754 761 770 778 784 788 791 792 793 795 795 794 793 791 788 786 783 780 774 769 764 758 753 747 739 734 729 722 709
666 672 677 681 687 693 697 704 709 714 720 731 739 747 756 763 772 779 784 787 788 789 792 793 792 792 790 787 786 785 780 776 769 763 759 753 746 739 730 724 717 710 703
668 674 679 682 687 692 697 703 710 716 723 732 739 749 758 765 772 778 782 784 785 787 790 790 788 787 786 786 786 782 776 771 765 759 755 751 744 733 723 715 708 699 689
670 675 677 682 688 694 700 706 710 717 724 733 741 750 758 765 772 776 778 779 782 786 788 787 785 785 786 787 783 778 773 768 763 757 751 748 739 729 719 712 700 689 677
669 675 679 685 689 696 703 708 713 721 726 733 742 750 758 765 770 773 775 778 782 783 784 783 783 785 785 785 782 778 772 766 759 754 748 742 733 724 715 707 697 684 674
671 675 681 686 692 699 705 712 719 725 732 739 746 753 760 766 770 773 775 778 780 781 781 784 784 786 785 785 779 774 771 765 758 751 743 740 732 721 711 701 692 682 669
674 677 682 687 694 700 707 714 721 733 738 744 749 756 762 768 771 773 776 777 779 781 781 782 785 786 787 783 777 773 769 764 756 749 739 736 727 717 708 696 685 675 661
678 679 683 689 696 703 711 717 724 732 739 746 755 758 765 770 771 774 775 775 778 780 781 783 785 785 783 780 774 770 767 761 753 744 738 732 723 714 702 691 681 671 658
682 685 689 694 698 706 715 720 727 736 741 748 755 762 767 771 772 775 775 775 778 779 783 785 785 784 781 776 771 770 764 757 750 744 737 728 719 710 699 689 678 668 656
687 690 693 698 706 712 717 724 733 739 745 752 758 764 769 772 774 775 775 779 780 780 784 787 784 781 778 774 770 767 761 754 747 741 734 724 715 707 697 685 675 664 652
695 699 703 708 712 717 724 732 740 744 749 759 763 767 770 772 776 777 779 778 779 781 784 785 781 778 775 773 768 763 756 752 745 739 731 721 712 703 694 683 675 663 651
703 708 710 713 718 724 732 740 745 748 754 761 765 770 772 772 777 780 779 779 780 782 782 780 778 774 771 771 766 759 754 748 743 737 727 718 710 701 691 682 671 659 648
711 714 717 721 726 731 738 744 749 754 760 764 767 770 771 776 780 779 780 779 780 781 778 778 777 772 769 766 761 756 751 746 742 734 725 716 707 698 689 679 669 657 646
718 720 724 728 732 737 743 749 755 759 764 767 770 772 774 775 778 778 779 780 779 780 780 777 774 770 766 762 756 752 748 743 738 732 723 714 705 696 687 677 668 656 645
726 727 730 735 740 745 750 755 759 762 765 768 773 773 773 775 777 778 779 779 780 780 778 776 770 767 764 758 753 749 745 741 736 729 720 712 703 695 685 676 666 654 645
731 732 736 742 746 751 755 759 763 767 769 768 772 773 774 776 777 777 778 778 778 777 777 773 768 765 760 756 750 746 742 737 731 725 717 709 701 692 683 673 663 655 645
Wind_Speed
40 40 38 39 40 38 38 39 39 38 39 39 39 34 32 28 25 22 17 15 15 12 12 12 11 9 9 9 10 11 13 15 18 28 28 30 32 34 35 34 36 36 36
37 36 37 36 39 38 37 39 39 40 40 40 39 36 33 30 26 23 19 16 16 15 14 12 11 9 11 10 12 13 14 17 21 26 28 32 32 33 35 37 35 34 35
32 34 34 35 37 37 36 37 39 39 39 38 39 37 34 31 28 23 20 17 16 14 13 13 11 10 11 11 12 14 15 16 20 26 30 30 31 32 35 34 33 35 31
29 32 32 34 35 35 34 36 37 37 38 38 37 36 34 32 28 25 22 17 15 13 13 12 11 11 11 11 12 14 16 19 20 24 27 30 31 33 31 34 34 33 34
25 27 28 31 31 32 33 34 36 36 37 37 36 33 33 31 29 27 24 19 16 13 12 12 11 10 11 12 12 15 18 19 21 23 26 29 29 31 30 34 35 39 35
21 24 27 28 30 32 32 33 33 33 34 34 34 35 34 31 27 24 21 18 16 14 13 11 10 9 10 11 13 16 18 21 23 22 25 27 30 32 34 35 37 33 18
19 22 25 28 29 30 31 32 32 32 33 33 34 37 34 30 25 22 18 16 15 13 11 10 8 8 9 11 12 15 17 20 23 26 27 27 31 34 39 39 36 35 35
16 20 23 26 27 29 31 30 30 31 33 33 35 35 34 28 24 21 18 13 13 11 11 8 8 8 9 10 13 18 19 22 21 23 25 30 33 37 36 36 40 43 41
17 19 22 25 27 30 30 30 30 31 29 30 34 34 31 26 21 19 17 14 12 10 8 7 7 9 8 9 15 17 20 22 21 22 27 31 32 32 32 35 33 31 30
17 20 22 25 27 28 30 31 31 30 30 33 32 30 27 26 20 19 17 14 11 8 6 6 7 8 8 12 15 17 20 21 25 29 30 28 30 30 28 28 33 31 31
19 21 24 25 26 27 28 29 31 31 32 32 31 27 25 24 20 17 15 11 9 7 4 5 5 5 10 14 14 17 17 25 26 25 25 28 27 28 30 30 31 32 36
21 22 22 25 26 27 29 28 30 33 33 30 29 25 22 19 17 15 12 7 6 4 4 5 4 8 12 13 14 14 19 21 19 22 25 27 28 31 34 36 36 37 37
21 21 22 24 24 27 30 30 29 30 30 27 25 23 20 18 17 14 10 7 4 3 4 4 6 8 10 11 13 16 17 18 20 22 24 28 30 35 36 36 37 39 40
22 23 25 25 25 25 26 26 28 28 28 26 23 22 20 19 17 15 11 7 4 2 1 2 6 7 8 11 14 17 18 19 21 22 24 30 33 32 33 36 38 40 39
23 22 22 24 25 25 23 24 27 25 27 26 23 24 21 17 15 14 12 9 6 3 2 5 6 9 11 13 16 18 19 20 20 22 26 31 32 33 34 36 35 37 34
21 22 21 24 25 26 27 27 24 26 25 24 25 24 18 18 16 14 13 10 7 5 6 6 7 9 10 13 15 19 22 22 22 25 26 30 32 34 35 37 35 33 34
20 23 24 25 25 25 25 26 26 25 25 25 23 22 20 18 15 14 13 11 8 6 8 6 6 9 12 14 15 18 22 23 24 24 26 30 33 33 36 36 36 35 35
23 26 27 26 27 27 26 28 28 26 24 24 21 22 20 16 15 13 11 10 8 8 7 5 6 8 12 14 17 20 24 25 25 26 28 30 32 33 35 34 35 36 36
19 20 22 24 26 27 27 25 24 23 22 24 25 21 17 15 15 13 12 11 9 7 5 5 7 10 12 15 17 20 22 24 28 29 29 32 34 34 35 34 38 40 42
22 24 25 24 26 27 26 27 25 24 21 20 19 16 13 11 12 12 12 9 8 7 6 7 9 11 14 16 18 20 22 26 28 29 31 34 36 32 36 38 37 36 36
20 23 26 26 25 26 24 23 23 22 21 18 15 12 11 13 12 10 9 8 8 6 6 8 11 13 16 17 17 20 23 27 29 31 34 37 32 38 38 36 38 37 36
22 21 23 24 26 26 25 23 22 22 22 20 18 15 13 14 11 9 8 8 7 8 9 12 14 15 18 22 23 23 25 27 30 33 38 38 36 38 35 37 38 36 36
22 23 24 24 25 25 24 22 21 19 18 17 15 13 12 11 9 8 7 8 9 10 12 14 16 19 20 24 24 27 25 27 31 37 40 37 38 37 38 38 37 35 35
21 23 23 23 23 23 22 21 19 18 17 15 14 13 12 10 8 7 7 8 10 11 12 15 17 20 23 26 26 28 28 31 36 38 41 37 38 38 38 37 36 36 35
22 22 22 20 20 20 20 18 17 17 16 15 12 11 10 9 7 6 7 8 11 13 15 17 19 22 23 26 27 27 29 31 35 37 40 35 36 37 36 35 37 36 34
23 24 24 23 21 19 18 17 16 15 14 14 11 9 8 6 5 5 7 9 12 15 18 20 21 23 25 28 30 28 29 33 35 37 40 34 36 36 38 36 36 35 32
Wind_Direction
196 196 195 195 193 190 186 185 181 177 175 175 178 176 177 178 183 185 188 191 196 204 214 220 225 230 238 249 256 261 264 265 273 287 292 298 300 301 301 302 300 299 297
192 193 194 192 192 189 187 185 180 175 175 175 175 175 176 177 182 183 184 192 196 204 213 221 229 234 244 254 261 266 271 277 282 290 297 300 299 303 303 303 304 303 301
188 190 191 190 191 186 186 184 180 175 171 173 174 174 174 176 178 181 186 192 198 206 211 219 227 235 247 257 265 276 282 286 286 286 293 301 303 307 307 305 305 303 303
187 188 188 188 188 185 182 183 179 175 170 172 174 172 173 176 179 181 185 187 195 205 214 218 228 236 249 263 275 281 287 288 294 295 299 305 307 309 308 311 311 308 306
183 186 186 185 180 181 181 180 177 175 173 171 168 168 170 176 179 183 187 187 193 203 213 221 232 240 251 263 276 285 291 295 301 302 302 305 307 313 314 313 306 307 306
179 184 181 176 177 176 177 178 177 172 168 166 165 165 167 174 178 180 185 184 193 199 210 224 237 254 264 271 277 281 286 293 293 295 297 301 304 307 310 309 306 310 312
180 176 170 171 173 175 173 174 170 166 162 160 162 169 171 176 170 169 171 185 189 201 208 221 238 254 265 279 284 290 292 295 294 296 296 298 305 307 307 310 308 302 299
167 167 170 172 168 166 169 168 163 160 160 161 163 169 172 170 165 168 170 181 190 199 211 226 244 263 275 287 295 300 302 301 299 299 298 299 301 305 306 305 304 302 300
173 171 171 169 168 168 166 163 160 156 155 154 159 164 167 159 159 162 171 185 192 200 212 232 251 266 279 302 307 306 304 302 303 301 303 303 304 305 306 308 304 306 303
168 169 171 173 171 168 164 159 156 154 149 150 149 162 161 156 155 165 176 180 187 196 217 242 256 270 294 313 313 313 305 307 312 314 311 306 307 304 307 303 301 300 299
170 169 169 168 166 162 155 153 148 143 139 138 142 147 153 157 157 170 177 178 188 192 216 247 261 285 307 314 315 308 304 311 313 311 309 308 308 309 309 306 301 295 292
159 157 159 159 156 154 148 145 143 139 131 130 130 129 141 148 157 166 174 183 187 192 240 257 281 308 316 318 317 313 317 318 315 314 313 312 315 313 311 308 306 299 291
150 152 150 145 146 148 144 141 136 135 132 132 127 129 133 142 150 162 169 163 169 185 232 267 308 325 329 330 326 325 325 322 321 321 317 313 312 311 311 312 311 307 302
145 144 142 140 139 141 140 141 137 136 130 133 133 133 141 150 159 163 162 163 169 146 252 311 341 348 342 336 331 329 325 325 325 320 317 313 313 315 317 317 312 313 310
137 137 137 140 137 133 132 136 130 131 138 139 142 144 148 152 160 159 155 150 149 173 90 34 19 360 350 335 330 328 328 327 329 325 320 315 315 319 318 315 312 313 309
130 134 134 132 130 129 126 119 128 139 144 144 144 142 141 141 143 142 135 128 114 93 77 48 15 353 336 323 330 330 330 329 327 325 322 317 316 317 314 315 315 315 313
132 130 132 128 129 125 126 127 124 123 128 131 135 134 132 134 137 132 126 111 87 88 77 45 9 342 325 325 331 330 323 321 323 323 326 318 313 312 315 313 315 318 315
137 135 133 131 129 127 128 127 127 132 132 131 130 128 128 126 121 125 123 115 91 66 59 28 347 327 326 325 330 326 320 320 325 330 324 316 315 315 317 316 319 319 317
125 126 128 129 129 130 131 128 124 120 116 122 122 118 121 115 105 101 103 103 94 74 36 2 338 332 331 331 324 317 318 322 327 324 320 319 318 318 318 318 318 317 318
110 112 110 109 110 112 109 111 112 112 106 103 104 112 126 119 99 89 85 79 68 51 16 346 340 338 334 329 326 320 321 324 322 321 319 321 319 321 321 318 318 317 317
105 111 114 109 107 108 107 109 113 111 105 106 112 120 120 119 105 96 89 71 55 35 356 343 345 343 340 331 327 328 326 319 320 319 322 321 322 327 321 321 319 316 316
104 106 109 110 110 109 109 112 111 109 112 110 106 107 107 107 102 94 79 64 46 24 9 358 351 350 348 340 338 332 324 319 321 321 320 320 326 325 323 323 318 318 319
108 108 107 107 110 111 107 108 108 109 112 117 120 114 110 105 98 86 67 49 35 20 15 6 356 356 355 351 346 342 327 325 322 319 318 325 328 327 327 321 318 319 319
104 105 106 108 110 109 110 109 112 115 115 113 117 117 111 105 93 74 54 35 24 14 6 3 359 356 353 351 350 346 341 340 331 323 327 327 329 326 324 321 319 317 315
103 101 99 102 105 108 112 112 115 116 119 121 119 113 106 99 85 60 37 23 10 2 360 357 360 356 352 352 352 346 340 331 328 332 333 332 329 327 324 320 318 319 318
118 116 115 117 113 115 115 116 119 127 126 122 119 109 99 88 73 45 20 7 360 357 352 354 356 353 352 350 352 342 333 334 334 336 339 335 332 330 327 324 324 324 320